Moose Lake, MN

1:40 AM CDT on May 30, 2017 (GMT -0500)
Moose Lake-Carlton County

Weather History for KMZH - April, 2013

Change the Weather History Date:

Sunday, April 28, 2013

  Actual Average Record
Temperature  
Mean Temperature 54 °F -  
Max Temperature 71 °F 60 °F 87 °F (1952)
Min Temperature 37 °F 31 °F 19 °F (1956)
Degree Days  
Heating Degree Days 11    
Growing Degree Days 4 (Base 50)    
Moisture  
Dew Point 34 °F    
Average Humidity 44    
Maximum Humidity 71    
Minimum Humidity 20    
Precipitation  
Precipitation 0.00 in - - ()
Sea Level Pressure  
Sea Level Pressure 29.74 in    
Wind  
Wind Speed 6 mph (SSW)    
Max Wind Speed 18 mph    
Max Gust Speed 26 mph    
Visibility 10 miles    
Events Rain    
Averages and records for this station are not official NWS values.
T = Trace of Precipitation, MM = Missing Value Source: NWS Daily Summary

Daily Weather History Graph

Daily Weather History Graph

Search for Another Location

Airport or City:

Trip Planner

Search our weather history database for the weather conditions in past years. The results will help you decide how hot, cold, wet, or windy it might be!

Date:

Astronomy

Apr. 28, 2013 Rise Set
Actual Time 6:01 AM CDT 8:16 PM CDT
Civil Twilight 5:28 AM CDT 8:49 PM CDT
Nautical Twilight 4:47 AM CDT 9:31 PM CDT
Astronomical Twilight 4:01 AM CDT 10:17 PM CDT
Moon 11:53 PM CDT (4/28) 8:11 AM CDT (4/28)
Length of Visible Light 15h 21m
Length of Day
14h 15m
Waning Gibbous, 88% of the Moon is Illuminated
Apr 28
Waning Gibbous
May 2
Last Quarter
May 9
New
May 17
First Quarter
May 24
Full

Hourly Weather History & Observations

Time (CDT) Temp. Windchill Dew Point Humidity Pressure Visibility Wind Dir Wind Speed Gust Speed Precip Events Conditions
12:13 AM 42.8 °F - 24.8 °F 49% 29.84 in 10.0 mi Calm Calm - N/A   Clear
12:33 AM 42.8 °F - 24.8 °F 49% 29.84 in 10.0 mi Calm Calm - N/A   Clear
12:53 AM 41.0 °F - 24.8 °F 53% 29.83 in 10.0 mi Calm Calm - N/A   Clear
1:13 AM 41.0 °F - 26.6 °F 57% 29.83 in 10.0 mi Calm Calm - N/A   Clear
1:33 AM 39.2 °F 37.0 °F 26.6 °F 61% 29.83 in 10.0 mi WSW 3.5 mph - N/A   Clear
1:53 AM 42.8 °F 41.1 °F 32.0 °F 66% 29.82 in 10.0 mi South 3.5 mph - N/A   Clear
2:13 AM 37.4 °F 34.9 °F 26.6 °F 65% 29.81 in 10.0 mi South 3.5 mph - N/A   Clear
2:33 AM 44.6 °F 41.4 °F 35.6 °F 71% 29.81 in 10.0 mi South 5.8 mph - N/A   Clear
2:53 AM 48.2 °F - 35.6 °F 62% 29.81 in 10.0 mi SSW 5.8 mph - N/A   Clear
3:13 AM 48.2 °F - 37.4 °F 66% 29.80 in 10.0 mi South 5.8 mph - N/A   Clear
3:33 AM 50.0 °F - 37.4 °F 62% 29.80 in 10.0 mi SSW 6.9 mph - N/A   Clear
3:53 AM 51.8 °F - 37.4 °F 58% 29.81 in 10.0 mi South 8.1 mph - N/A   Clear
4:13 AM 50.0 °F - 37.4 °F 62% 29.80 in 10.0 mi SSW 8.1 mph - N/A   Scattered Clouds
4:33 AM 50.0 °F - 37.4 °F 62% 29.80 in 10.0 mi SSW 8.1 mph - N/A   Clear
4:53 AM 50.0 °F - 37.4 °F 62% 29.80 in 10.0 mi South 6.9 mph - N/A   Clear
5:13 AM 50.0 °F - 37.4 °F 62% 29.80 in 10.0 mi South 8.1 mph - N/A   Clear
5:33 AM 50.0 °F - 37.4 °F 62% 29.80 in 10.0 mi South 8.1 mph - N/A   Mostly Cloudy
5:53 AM 51.8 °F - 37.4 °F 58% 29.79 in 10.0 mi South 8.1 mph - N/A   Overcast
6:13 AM 51.8 °F - 37.4 °F 58% 29.78 in 10.0 mi South 10.4 mph - N/A   Mostly Cloudy
6:33 AM 51.8 °F - 37.4 °F 58% 29.78 in 10.0 mi South 9.2 mph - N/A   Mostly Cloudy
6:53 AM 50.0 °F - 37.4 °F 62% 29.77 in 10.0 mi South 9.2 mph - N/A   Scattered Clouds
7:13 AM 51.8 °F - 37.4 °F 58% 29.77 in 10.0 mi South 10.4 mph - N/A   Mostly Cloudy
7:33 AM 51.8 °F - 37.4 °F 58% 29.77 in 10.0 mi South 11.5 mph 17.3 mph N/A   Scattered Clouds
8:13 AM 53.6 °F - 37.4 °F 54% 29.76 in 10.0 mi South 11.5 mph 18.4 mph N/A   Clear
8:33 AM 55.4 °F - 37.4 °F 51% 29.76 in 10.0 mi SSW 9.2 mph 17.3 mph N/A   Clear
8:53 AM 57.2 °F - 37.4 °F 48% 29.75 in 10.0 mi South 12.7 mph 19.6 mph N/A   Scattered Clouds
9:13 AM 59.0 °F - 37.4 °F 45% 29.75 in 10.0 mi SSW 12.7 mph 19.6 mph N/A   Scattered Clouds
9:33 AM 59.0 °F - 37.4 °F 45% 29.74 in 10.0 mi South 8.1 mph - N/A   Mostly Cloudy
9:53 AM 59.0 °F - 35.6 °F 42% 29.73 in 10.0 mi South 10.4 mph 20.7 mph N/A   Scattered Clouds
10:13 AM 60.8 °F - 35.6 °F 39% 29.72 in 10.0 mi South 10.4 mph 16.1 mph N/A   Scattered Clouds
10:33 AM 62.6 °F - 33.8 °F 34% 29.71 in 10.0 mi South 13.8 mph 18.4 mph N/A   Clear
10:53 AM 64.4 °F - 33.8 °F 32% 29.71 in 10.0 mi SSW 10.4 mph 17.3 mph N/A   Scattered Clouds
11:13 AM 64.4 °F - 33.8 °F 32% 29.71 in 10.0 mi SSW 15.0 mph 21.9 mph N/A   Clear
11:33 AM 66.2 °F - 33.8 °F 30% 29.69 in 10.0 mi South 16.1 mph 21.9 mph N/A   Clear
11:53 AM 68.0 °F - 33.8 °F 28% 29.69 in 10.0 mi SSW 17.3 mph 26.5 mph N/A   Clear
12:14 PM 68.0 °F - 33.8 °F 28% 29.69 in 10.0 mi SSW 11.5 mph 25.3 mph N/A   Scattered Clouds
12:33 PM 69.8 °F - 33.8 °F 27% 29.69 in 10.0 mi SSW 15.0 mph 24.2 mph N/A   Mostly Cloudy
12:53 PM 69.8 °F - 33.8 °F 27% 29.68 in 10.0 mi South 18.4 mph 23.0 mph N/A   Scattered Clouds
1:13 PM 69.8 °F - 33.8 °F 27% 29.68 in 10.0 mi SSW 15.0 mph 23.0 mph N/A   Mostly Cloudy
1:33 PM 69.8 °F - 33.8 °F 27% 29.68 in 10.0 mi SSW 15.0 mph 20.7 mph N/A   Mostly Cloudy
1:53 PM 71.6 °F - 32.0 °F 23% 29.67 in 10.0 mi SSW 12.7 mph 20.7 mph N/A   Scattered Clouds
2:13 PM 69.8 °F - 33.8 °F 27% 29.67 in 10.0 mi South 9.2 mph - N/A   Clear
2:33 PM 69.8 °F - 32.0 °F 25% 29.67 in 10.0 mi SSW 18.4 mph 25.3 mph N/A   Scattered Clouds
2:53 PM 69.8 °F - 32.0 °F 25% 29.68 in 10.0 mi SSW 13.8 mph 18.4 mph N/A   Mostly Cloudy
3:13 PM 69.8 °F - 32.0 °F 25% 29.68 in 10.0 mi WSW 10.4 mph - N/A   Overcast
3:33 PM 69.8 °F - 32.0 °F 25% 29.67 in 10.0 mi SW 9.2 mph 16.1 mph N/A   Overcast
3:53 PM 69.8 °F - 33.8 °F 27% 29.67 in 10.0 mi SW 9.2 mph 16.1 mph N/A   Overcast
4:13 PM 71.6 °F - 33.8 °F 25% 29.68 in 10.0 mi WSW 9.2 mph - N/A   Mostly Cloudy
4:33 PM 69.8 °F - 33.8 °F 27% 29.68 in 10.0 mi WSW 10.4 mph - N/A   Overcast
4:53 PM 71.6 °F - 30.2 °F 22% 29.68 in 10.0 mi West 15.0 mph 20.7 mph N/A   Mostly Cloudy
5:13 PM 71.6 °F - 28.4 °F 20% 29.68 in 10.0 mi WSW 11.5 mph 20.7 mph N/A   Scattered Clouds
5:33 PM 69.8 °F - 32.0 °F 25% 29.69 in 10.0 mi WNW 11.5 mph - N/A   Mostly Cloudy
5:53 PM 68.0 °F - 32.0 °F 26% 29.70 in 10.0 mi WNW 6.9 mph 20.7 mph N/A Rain Light Rain
6:13 PM 66.2 °F - 30.2 °F 26% 29.70 in 10.0 mi WNW 8.1 mph 18.4 mph N/A   Mostly Cloudy
6:33 PM 66.2 °F - 32.0 °F 28% 29.69 in 10.0 mi NW 6.9 mph - N/A   Mostly Cloudy
6:53 PM 64.4 °F - 32.0 °F 30% 29.70 in 10.0 mi NNW 6.9 mph - N/A   Scattered Clouds
7:13 PM 64.4 °F - 32.0 °F 30% 29.70 in 10.0 mi NW 10.4 mph 17.3 mph N/A   Scattered Clouds
7:33 PM 62.6 °F - 33.8 °F 34% 29.70 in 10.0 mi NNW 10.4 mph 19.6 mph N/A   Scattered Clouds
7:53 PM 60.8 °F - 33.8 °F 36% 29.70 in 10.0 mi NW 6.9 mph - N/A   Mostly Cloudy
8:13 PM 60.8 °F - 35.6 °F 39% 29.70 in 10.0 mi WNW 3.5 mph - N/A   Mostly Cloudy
8:33 PM 59.0 °F - 35.6 °F 42% 29.69 in 10.0 mi Calm Calm - N/A   Scattered Clouds
8:53 PM 59.0 °F - 35.6 °F 42% 29.69 in 10.0 mi Calm Calm - N/A   Mostly Cloudy
9:13 PM 53.6 °F - 35.6 °F 51% 29.69 in 10.0 mi Calm Calm - N/A   Mostly Cloudy
9:33 PM 53.6 °F - 35.6 °F 51% 29.70 in 10.0 mi Calm Calm - N/A   Overcast
9:53 PM 51.8 °F - 35.6 °F 54% 29.72 in 10.0 mi WSW 3.5 mph - N/A   Overcast
10:13 PM 51.8 °F - 35.6 °F 54% 29.73 in 10.0 mi WSW 3.5 mph - N/A   Overcast
10:33 PM 51.8 °F - 37.4 °F 58% 29.73 in 10.0 mi South 3.5 mph - N/A   Scattered Clouds
10:53 PM 50.0 °F - 35.6 °F 58% 29.74 in 10.0 mi Calm Calm - N/A   Scattered Clouds
11:13 PM 51.8 °F - 37.4 °F 58% 29.74 in 10.0 mi Calm Calm - N/A   Clear
11:33 PM 50.0 °F - 35.6 °F 58% 29.74 in 10.0 mi Calm Calm - N/A   Clear
11:53 PM 48.2 °F - 37.4 °F 66% 29.74 in 10.0 mi Calm Calm - N/A   Clear